Regional Weather Roundup
Issued by NWS

Home | Current Version | Previous Version | Graphics & Text | Print | Product List | Glossary On
Versions: 1 2 3 4 5 6 7 8 9 10 11 12 13 14 15 16 17 18 19 20 21 22 23 24 25 26 27 28 29 30 31 32 33 34 35 36 37 38 39 40 41 42 43 44 45 46 47 48 49 50
000
ASUS43 KMPX 011510
RWRMN
WEATHER ROUNDUP FOR MINNESOTA
NATIONAL WEATHER SERVICE TWIN CITIES/CHANHASSEN MN
1000 AM CDT WED JUL 01 2015


NOTE: "FAIR" INDICATES FEW OR NO CLOUDS BELOW 12,000 FEET WITH NO
SIGNIFICANT WEATHER AND/OR OBSTRUCTIONS TO VISIBILITY. N/A MEANS
CURRENT SKY AND/OR WEATHER CONDITIONS ARE NOT AVAILABLE.

MNZ060>063-068>070-011600-
   Twin Cities Metro

CITY           SKY/WX    TMP DP  RH WIND       PRES   REMARKS
TWIN CITIES    CLOUDY    60  49  66 SE6       30.01S
ST PAUL        CLOUDY    59  49  69 CALM      30.02R
CRYSTAL        CLOUDY    62  47  57 E3        30.00S
BLAINE         CLOUDY    63  46  55 SE5       30.01S
LAKEVILLE      CLOUDY    57  52  82 E3        30.02R
EDEN PRAIRIE   CLOUDY    62  51  67 SE6       30.00R
SOUTH ST PAUL  CLOUDY    60  49  67 CALM      30.02R
LAKE ELMO      FAIR      61  50  67 CALM      30.03R
$$
MNZ001>005-007-008-013>017-022>024-027-028-011600-
   Northwest Minnesota

CITY           SKY/WX    TMP DP  RH WIND       PRES   REMARKS
BEMIDJI        SUNNY     68  60  76 S6        29.97S
HALLOCK        SUNNY     70  61  73 W1        29.95S
ROSEAU         SUNNY     72  61  68 CALM      29.96S
WARROAD        SUNNY     70  61  73 CALM      29.97S
THIEF RVR FALL SUNNY     70  57  64 CALM      29.96S
CROOKSTON      SUNNY     70  61  73 SW5       29.95S
FOSSTON        PTSUNNY   68  61  77 CALM      29.97R
DETROIT LAKES  PTSUNNY   68  61  77 S8        29.99R
MOORHEAD       SUNNY     68  61  77 S8        29.97R
PARK RAPIDS    MOSUNNY   69  59  70 SW5       29.98S
MAHNOMEN       FAIR      69  60  75 SW6       29.97S
$$
MNZ006-009>011-018-025>026-011600-
   North Central Minnesota

CITY           SKY/WX    TMP DP  RH WIND       PRES   REMARKS
BAUDETTE       SUNNY     69  57  65 CALM      29.96S
FLAG ISLAND    SUNNY     70  57  64 S5        29.95S
INTL FALLS     SUNNY     67  57  70 CALM      29.98S
WASKISH        SUNNY     72  61  68 W3        29.97S
BIG FORK       SUNNY     68  57  68 CALM      29.99S
LONGVILLE      SUNNY     66  55  68 SW6       29.99S
GRAND RAPIDS   SUNNY     63  55  77 S9        30.00F
CRANE LAKE     SUNNY     63  55  77 S2        30.01S
ORR            SUNNY     64  54  68 CALM      29.97S
COOK           SUNNY     64  55  72 W3        30.00S
WALKER         FAIR      68  58  72 S7        29.98S
$$
MNZ012-019>021-037-011600-
   Northeast Minnesota

CITY           SKY/WX    TMP DP  RH WIND       PRES   REMARKS
DULUTH         MOSUNNY   63  51  65 S7        30.02R
ELY            SUNNY     63  52  67 CALM      30.00F
HIBBING        SUNNY     63  51  65 VRB5      30.01S
DULUTH HARBOR  PTSUNNY   59  54  82 NE3       30.03S
TWO HARBORS    PTSUNNY   63  54  72 S2        30.00F
SILVER BAY     SUNNY     63  48  59 S3        30.00F
GRAND MARAIS     N/A     50  45  83 S3        30.02F
G MARAIS ARPRT SUNNY     61  45  55 CALM      30.03F
$$
MNZ029>031-032-039>041-046>048-054>057-064-011600-
   West Central Minnesota

CITY           SKY/WX    TMP DP  RH WIND       PRES   REMARKS
FERGUS FALLS   MOSUNNY   66  59  77 S9        29.97S
WHEATON        PTSUNNY   61  57  88 SE10      29.98R
MORRIS         CLOUDY    64  57  77 SE13      29.97S
ALEXANDRIA     PTSUNNY   62  57  83 SE7       30.01R
ELBOW LAKE     FAIR      64  58  83 SE8       29.98R
WADENA           N/A     66  57  72 S7        29.99S
GLENWOOD       CLOUDY    63  55  77 SE7       30.00S
APPLETON       CLOUDY    63  55  77 SE8       29.97S
BENSON         DRIZZLE   63  54  72 S7        29.98F
ORTONVILLE     CLOUDY    63  57  82 SE8       29.97R
MADISON        CLOUDY    64  57  77 SE10      29.97S
WILLMAR        FAIR      63  55  77 SE7       30.01S
$$
MNZ033>034-036-042>043-049>051-058-059-011600-
   Central Minnesota

CITY           SKY/WX    TMP DP  RH WIND       PRES   REMARKS
ST CLOUD       CLOUDY    60  51  72 SE3       30.01R
SAUK CENTRE    FAIR      60  55  83 SE5       30.00R
PAYNESVILLE    LGT RAIN  58  51  78 E6        30.01R
AITKIN         MOSUNNY   68  54  60 S8        30.00S
PINE RIVER     SUNNY     66  54  63 S8        30.02F
BRAINERD       SUNNY     66  47  50 S9        30.01S
STAPLES        MOSUNNY   66  55  68 S7        29.99S
LONG PRAIRIE   FAIR      61  54  77 E5        30.01R
LITTLE FALLS   MOSUNNY   66  46  48 S6        30.01R
LITCHFIELD     CLOUDY    61  55  82 SE3       30.01S
BUFFALO        CLOUDY    60  50  69 CALM      30.02S
MAPLE LAKE     CLOUDY    61  52  72 E3        30.02S
$$
MNZ037-044-045-052-053-011600-
   East Central Minnesota

CITY           SKY/WX    TMP DP  RH WIND       PRES   REMARKS
PRINCETON      PTSUNNY   66  46  48 E8        30.01F
MORA           MOSUNNY   63  45  51 SE5       30.04S
CAMBRIDGE      MOSUNNY   66  48  52 E7        30.00S
RUSH CITY      MOSUNNY   62  48  60 SE6       30.03S
MOOSE LAKE     MOSUNNY   63  54  72 SW9       30.01S
HINCKLEY       FAIR      63  46  55 S6        30.02F
CLOQUET        SUNNY     63  45  51 SW8       30.02S
MCGREGOR       PTSUNNY   63  48  59 S9        30.02S
$$
MNZ071>073-080-081-089-090-097-098-011600-
   Southwest Minnesota

CITY           SKY/WX    TMP DP  RH WIND       PRES   REMARKS
MONTEVIDEO     CLOUDY    63  55  77 S10       29.99S
GRANITE FALLS  CLOUDY    63  56  79 E7        30.00R
CANBY          RAIN      61  59  91 SE6       29.99R
MARSHALL       CLOUDY    61  55  82 SE7         N/A
REDWOOD FALLS  CLOUDY    61  56  83 E7        29.98F
OLIVIA         CLOUDY    57  52  82 SE5       29.99S
PIPESTONE      DRIZZLE   63  59  88 SE8       29.96R
WINDOM         DRIZZLE   61  57  88 E6        29.98S
WORTHINGTON    CLOUDY    61  55  82 E8        29.98R
JACKSON        CLOUDY    61  57  88 E10       29.98S
TRACY          CLOUDY    61  60  94 SE7       29.98S
SLAYTON        CLOUDY    60  58  93 E7        29.98S
$$
MNZ065>067-074>077-082>085-091>093-011600-
   South Central Minnesota

CITY           SKY/WX    TMP DP  RH WIND       PRES   REMARKS
MANKATO        CLOUDY    61  54  77 E3        30.00R
NEW ULM        CLOUDY    61  55  82 E5        29.99S
ST JAMES       CLOUDY    63  57  82 E5        30.00S
FAIRMONT       CLOUDY    63  54  72 E6        29.98S
GLENCOE        DRIZZLE   60  56  86 E6        30.00S
FARIBAULT      CLOUDY    61  52  72 E5        30.01S
OWATONNA       CLOUDY    61  52  72 E7        30.01R
WASECA         CLOUDY    59  52  77 E6        30.01S
ALBERT LEA     PTSUNNY   63  55  77 E5        30.00R
$$
MNZ078>079-086>088-094>096-011600-
   Southeast Minnesota

CITY           SKY/WX    TMP DP  RH WIND       PRES   REMARKS
ROCHESTER      PTSUNNY   60  52  74 SE6       30.02R
RED WING       CLOUDY    61  50  67 E6        30.00S
STANTON        CLOUDY    61  52  72 CALM      30.00R
DODGE CENTER   CLOUDY    61  52  72 SE6       30.01R
WINONA         MOSUNNY   61  50  67 SE6       30.02R
AUSTIN         PTSUNNY   63  54  72 E3        30.00R
PRESTON        MOSUNNY   59  50  72 SE6       30.01S
$$
ABBREVIATIONS USED IN REMARKS
   TC - TEMPERATURES IN CELSIUS
  WCI - WIND CHILL INDEX
   HX - HEAT INDEX
  VSB - VISIBILITY
$$



USA.gov is the U.S. government's official web portal to all federal, state and local government web resources and services.